| time (UTC) | temp F | wind direction | speed knots | gust knots | rain 1hr in | rain 24hr in | rain mn in | humidity % | barometer mb |
| 20260831094530 | 60 | 241 | 0.0 | 0.9 | 0.00 | 0.16 | 0.00 | 98 | 1020.1 |
| 20260831093040 | 60 | 241 | 0.0 | 0.0 | 0.00 | 0.16 | 0.00 | 98 | 1020.2 |
| 20260831091530 | 60 | 241 | 0.0 | 1.7 | 0.00 | 0.16 | 0.00 | 98 | 1020.2 |
| 20260831090039 | 60 | 241 | 0.0 | 1.7 | 0.00 | 0.16 | 0.00 | 98 | 1020.2 |
| 20260831084524 | 60 | 241 | 0.0 | 0.9 | 0.00 | 0.16 | 0.00 | 98 | 1020.3 |
| 20260831083031 | 60 | 241 | 0.0 | 0.9 | 0.00 | 0.16 | 0.00 | 98 | 1020.3 |
| 20260831081531 | 60 | 241 | 0.0 | 0.0 | 0.00 | 0.16 | 0.00 | 98 | 1020.4 |
| 20260831080036 | 60 | 241 | 0.0 | 0.9 | 0.00 | 0.16 | 0.00 | 98 | 1020.4 |
| 20260831074533 | 60 | 241 | 0.0 | 1.7 | 0.00 | 0.16 | 0.00 | 98 | 1020.2 |
| 20260831073029 | 60 | 241 | 0.0 | 1.7 | 0.00 | 0.16 | 0.00 | 98 | 1020.1 |
| 20260831071533 | 60 | 241 | 0.0 | 0.0 | 0.00 | 0.16 | 0.00 | 98 | 1020.4 |
| 20260831070038 | 60 | 241 | 0.0 | 1.7 | 0.00 | 0.16 | 0.00 | 98 | 1020.3 |
| 20260831064537 | 60 | 241 | 0.0 | 0.9 | 0.00 | 0.16 | 0.00 | 98 | 1020.2 |
| 20260831063025 | 61 | 241 | 0.0 | 0.9 | 0.00 | 0.16 | 0.00 | 98 | 1020.2 |
| 20260831061529 | 61 | 241 | 0.0 | 0.9 | 0.00 | 0.16 | 0.00 | 98 | 1020.3 |
| 20260831060030 | 61 | 241 | 0.0 | 0.0 | 0.00 | 0.16 | 0.00 | 98 | 1020.4 |
| 20260831054534 | 61 | 241 | 0.0 | 1.7 | 0.00 | 0.16 | 0.00 | 98 | 1020.5 |
| 20260831053035 | 61 | 241 | 0.0 | 0.9 | 0.00 | 0.16 | 0.00 | 98 | 1020.6 |
| 20260831051504 | 61 | 241 | 0.0 | 0.9 | 0.00 | 0.16 | 0.00 | 98 | 1020.9 |
| 20260831050007 | 61 | 241 | 0.0 | 1.7 | 0.00 | 0.16 | 0.00 | 98 | 1021.1 |
| 20260831044513 | 61 | 241 | 0.0 | 0.0 | 0.00 | 0.16 | 0.00 | 98 | 1021.0 |
| 20260831043019 | 61 | 241 | 0.0 | 0.9 | 0.00 | 0.16 | 0.00 | 98 | 1020.9 |
| 20260831041504 | 61 | 241 | 0.0 | 0.9 | 0.00 | 0.16 | 0.00 | 98 | 1020.8 |
| 20260831040006 | 61 | 241 | 0.0 | 0.0 | 0.00 | 0.16 | 0.00 | 98 | 1020.9 |
| 20260831034508 | 61 | 241 | 0.0 | 0.9 | 0.00 | 0.16 | 0.16 | 98 | 1020.9 |
| 20260831033014 | 61 | 241 | 0.0 | 0.9 | 0.00 | 0.16 | 0.16 | 98 | 1020.8 |
| 20260831031521 | 61 | 241 | 0.0 | 0.9 | 0.00 | 0.16 | 0.16 | 98 | 1020.5 |
| 20260831030004 | 61 | 241 | 0.0 | 1.7 | 0.00 | 0.16 | 0.16 | 98 | 1020.5 |
| 20260831024506 | 61 | 198 | 0.0 | 1.7 | 0.00 | 0.16 | 0.16 | 98 | 1020.5 |
| 20260831023014 | 61 | 198 | 0.0 | 1.7 | 0.00 | 0.16 | 0.16 | 98 | 1020.5 |
| 20260831021520 | 61 | 198 | 0.0 | 0.9 | 0.00 | 0.16 | 0.16 | 98 | 1020.5 |
| 20260831020025 | 61 | 198 | 0.0 | 0.0 | 0.00 | 0.16 | 0.16 | 98 | 1020.6 |
| 20260831014506 | 61 | 198 | 0.0 | 0.9 | 0.00 | 0.16 | 0.16 | 97 | 1020.5 |
| 20260831013011 | 61 | 198 | 0.0 | 0.9 | 0.00 | 0.16 | 0.16 | 97 | 1020.4 |
| 20260831011516 | 62 | 198 | 0.0 | 2.6 | 0.00 | 0.16 | 0.16 | 97 | 1020.4 |
| 20260831010025 | 62 | 260 | 1.7 | 3.5 | 0.00 | 0.16 | 0.16 | 97 | 1020.2 |
| 20260831004527 | 62 | 238 | 0.9 | 2.6 | 0.00 | 0.16 | 0.16 | 97 | 1020.3 |
| 20260831003008 | 62 | 202 | 0.9 | 3.5 | 0.00 | 0.16 | 0.16 | 97 | 1020.1 |
| 20260831001512 | 62 | 263 | 0.9 | 1.7 | 0.00 | 0.16 | 0.16 | 97 | 1019.9 |
| 20260831000021 | 62 | 243 | 0.0 | 2.6 | 0.00 | 0.16 | 0.16 | 97 | 1019.8 |
| 20260830234550 | 62 | 285 | 0.0 | 2.6 | 0.00 | 0.16 | 0.16 | 97 | 1019.6 |
| 20260830233033 | 62 | 263 | 0.0 | 5.2 | 0.00 | 0.16 | 0.16 | 97 | 1019.4 |
| 20260830231513 | 63 | 267 | 0.9 | 2.6 | 0.00 | 0.16 | 0.16 | 97 | 1019.4 |
| 20260830230018 | 62 | 263 | 0.9 | 5.2 | 0.00 | 0.16 | 0.16 | 97 | 1019.4 |
| 20260830224525 | 62 | 268 | 1.7 | 6.1 | 0.00 | 0.16 | 0.16 | 97 | 1019.5 |
| 20260830223035 | 62 | 328 | 0.9 | 3.5 | 0.00 | 0.16 | 0.16 | 97 | 1019.5 |
| 20260830221536 | 62 | 235 | 0.9 | 3.5 | 0.00 | 0.16 | 0.16 | 97 | 1019.4 |
| 20260830220014 | 62 | 225 | 1.7 | 2.6 | 0.00 | 0.16 | 0.16 | 97 | 1019.4 |
| 20260830214520 | 62 | 249 | 0.9 | 3.5 | 0.00 | 0.16 | 0.16 | 97 | 1019.4 |
| 20260830213027 | 62 | 261 | 0.9 | 3.5 | 0.00 | 0.16 | 0.16 | 97 | 1019.3 |
| 20260830211534 | 62 | 161 | 1.7 | 3.5 | 0.00 | 0.16 | 0.16 | 97 | 1019.4 |
| 20260830210012 | 62 | 242 | 0.0 | 3.5 | 0.00 | 0.16 | 0.16 | 97 | 1019.5 |
| 20260830204516 | 62 | 218 | 0.9 | 2.6 | 0.00 | 0.16 | 0.16 | 96 | 1019.6 |
| 20260830203042 | 61 | 264 | 0.9 | 2.6 | 0.00 | 0.16 | 0.16 | 96 | 1019.6 |
| 20260830201531 | 61 | 217 | 0.0 | 1.7 | 0.00 | 0.16 | 0.16 | 96 | 1019.6 |
| 20260830200032 | 61 | 286 | 0.0 | 1.7 | 0.02 | 0.16 | 0.16 | 96 | 1019.6 |
| 20260830194512 | 61 | 227 | 0.0 | 2.6 | 0.02 | 0.16 | 0.16 | 96 | 1019.5 |
| 20260830193023 | 62 | 252 | 0.9 | 4.3 | 0.04 | 0.16 | 0.16 | 96 | 1019.6 |
| 20260830191527 | 62 | 269 | 0.9 | 3.5 | 0.08 | 0.16 | 0.16 | 95 | 1020.1 |
| 20260830190036 | 61 | 290 | 1.7 | 6.1 | 0.09 | 0.14 | 0.14 | 95 | 1020.3 |
| 20260830184534 | 62 | 319 | 2.6 | 5.2 | 0.14 | 0.14 | 0.14 | 95 | 1020.4 |
| 20260830183022 | 62 | 302 | 0.9 | 5.2 | 0.12 | 0.12 | 0.12 | 94 | 1020.4 |
| 20260830181524 | 62 | 322 | 0.9 | 8.7 | 0.08 | 0.08 | 0.08 | 92 | 1020.5 |
| 20260830180036 | 64 | 320 | 1.7 | 3.5 | 0.05 | 0.05 | 0.05 | 89 | 1020.4 |
| 20260830174539 | 66 | 232 | 0.9 | 3.5 | 0.00 | 0.00 | 0.00 | 85 | 1020.4 |
| 20260830173050 | 66 | 293 | 0.9 | 7.8 | 0.00 | 0.00 | 0.00 | 81 | 1020.2 |
| 20260830171521 | 68 | 290 | 0.9 | 4.3 | 0.00 | 0.00 | 0.00 | 77 | 1020.0 |
| 20260830170003 | 68 | 305 | 1.7 | 4.3 | 0.00 | 0.00 | 0.00 | 75 | 1020.0 |
| 20260830164507 | 68 | 304 | 0.0 | 7.0 | 0.00 | 0.00 | 0.00 | 75 | 1020.1 |
| 20260830163016 | 69 | 336 | 1.7 | 6.1 | 0.00 | 0.00 | 0.00 | 74 | 1020.1 |
| 20260830161515 | 69 | 269 | 0.9 | 4.3 | 0.00 | 0.00 | 0.00 | 73 | 1019.9 |
| 20260830160024 | 69 | 244 | 1.7 | 5.2 | 0.00 | 0.00 | 0.00 | 73 | 1020.0 |
| 20260830154509 | 69 | 220 | 0.9 | 6.1 | 0.00 | 0.00 | 0.00 | 72 | 1020.1 |
| 20260830153013 | 69 | 248 | 0.9 | 6.1 | 0.00 | 0.00 | 0.00 | 74 | 1020.2 |
| 20260830151516 | 69 | 269 | 1.7 | 3.5 | 0.00 | 0.00 | 0.00 | 73 | 1020.1 |
| 20260830150026 | 68 | 202 | 0.9 | 2.6 | 0.00 | 0.00 | 0.00 | 77 | 1020.2 |
| 20260830144504 | 67 | 159 | 0.0 | 3.5 | 0.00 | 0.00 | 0.00 | 78 | 1020.0 |
| 20260830143005 | 67 | 217 | 0.0 | 2.6 | 0.00 | 0.00 | 0.00 | 80 | 1020.2 |
| 20260830141514 | 66 | 217 | 0.0 | 2.6 | 0.00 | 0.00 | 0.00 | 80 | 1020.1 |
| 20260830140018 | 65 | 130 | 0.9 | 2.6 | 0.00 | 0.00 | 0.00 | 81 | 1020.2 |
| 20260830134529 | 64 | 130 | 0.0 | 2.6 | 0.00 | 0.00 | 0.00 | 84 | 1020.2 |
| 20260830133006 | 64 | 169 | 0.9 | 2.6 | 0.00 | 0.00 | 0.00 | 85 | 1020.2 |
| 20260830131522 | 63 | 128 | 0.9 | 3.5 | 0.00 | 0.00 | 0.00 | 86 | 1020.2 |
| 20260830130015 | 62 | 165 | 0.9 | 3.5 | 0.00 | 0.00 | 0.00 | 86 | 1020.1 |
| 20260830124522 | 62 | 152 | 1.7 | 3.5 | 0.00 | 0.00 | 0.00 | 85 | 1020.1 |
| 20260830123027 | 61 | 238 | 0.9 | 2.6 | 0.00 | 0.00 | 0.00 | 87 | 1020.3 |
| 20260830121507 | 60 | 238 | 1.7 | 2.6 | 0.00 | 0.00 | 0.00 | 90 | 1020.4 |
| 20260830120013 | 59 | 238 | 0.0 | 0.9 | 0.00 | 0.00 | 0.00 | 91 | 1020.2 |
| 20260830114516 | 59 | 238 | 0.0 | 1.7 | 0.00 | 0.00 | 0.00 | 91 | 1020.4 |
| 20260830113029 | 58 | 238 | 0.0 | 0.9 | 0.00 | 0.00 | 0.00 | 92 | 1020.1 |
| 20260830111530 | 58 | 238 | 0.0 | 1.7 | 0.00 | 0.00 | 0.00 | 92 | 1020.2 |
| 20260830110010 | 57 | 238 | 0.0 | 1.7 | 0.00 | 0.00 | 0.00 | 92 | 1020.3 |
| 20260830104515 | 57 | 238 | 0.0 | 0.9 | 0.00 | 0.00 | 0.00 | 92 | 1020.3 |
| 20260830103020 | 57 | 238 | 0.0 | 1.7 | 0.00 | 0.00 | 0.00 | 92 | 1020.5 |
| 20260830101523 | 57 | 238 | 0.0 | 0.9 | 0.00 | 0.00 | 0.00 | 92 | 1020.5 |
| 20260830100034 | 57 | 238 | 0.0 | 0.0 | 0.00 | 0.00 | 0.00 | 91 | 1020.5 |